Regional Weather Roundup
Issued by NWS

Home | Current Version | Previous Version | Graphics & Text | Print | Product List | Glossary On
Versions: 1 2 3 4 5 6 7 8 9 10 11 12 13 14 15 16 17 18 19 20 21 22 23 24 25 26 27 28 29 30 31 32 33 34 35 36 37 38 39 40 41 42 43 44 45 46 47 48 49 50
000
ASUS43 KLOT 040301
RWRIL

ILLINOIS REGIONAL WEATHER ROUNDUP
NATIONAL WEATHER SERVICE CHICAGO/ROMEOVILLE IL
1000 PM CDT THU SEP 03 2015

NOTE: "FAIR" INDICATES FEW OR NO CLOUDS BELOW 12,000 FEET WITH NO
SIGNIFICANT WEATHER AND/OR OBSTRUCTIONS TO VISIBILITY.

* THESE STATIONS ARE NOT UNDER NWS QUALITY CONTROL. THEY ALSO MAY NOT
  REPORT WEATHER SUCH AS PRECIPITATION OR FOG.

ILZ001-002-007-009-015-016-024-040400-
NORTHWEST ILLINOIS

CITY           SKY/WX    TMP DP  RH WIND       PRES   REMARKS
MOLINE         CLEAR     77  71  82 CALM      29.92R
STERLING*      CLEAR     77  73  88 CALM      29.91R
$$

ILZ003-004-008-010-011-017-018-040400-
NORTH CENTRAL ILLINOIS

CITY           SKY/WX    TMP DP  RH WIND       PRES   REMARKS
ROCKFORD       PTCLDY    78  71  79 NE9       29.95R HX  80
$$

ILZ005-006-012>014-019>023-040400-
NORTHEAST ILLINOIS

CITY           SKY/WX    TMP DP  RH WIND       PRES   REMARKS
CHICAGO-OHARE  MOCLDY    73  66  78 NE7G18    29.94R
CHICAGO-MIDWAY PTCLDY    76  67  73 NE9       29.94R
AURORA         PTCLDY    74  69  85 E6        29.94R
WAUKEGAN       CLOUDY    69  66  90 VRB3      29.95R
DUPAGE AIRPORT MOCLDY    73  66  78 NE6       29.94R
WHEELING       MOCLDY    71  67  87 NE6       29.96R
NORTHERLY ISL    N/A     71  67  87 N6          N/A
$$

LMZ740>746-040400-
SOUTHERN LAKE MICHIGAN

STATION/POSITION SKY/WX   TEMP    WIND        PRES    VSBY  WAVE
                          AIR SEA DIR/SP/G                  HT/PER
                          (F)     (DEG/KT/KT) (MB)    (MI)  (FT/S)
SOUTHERN BUOY              70 71  360/ 12/ 14 1013.0
WILMETTE HARBOR            64 68  130/  6/ 10   N/A           2/ 2
HARRISON CRIB              72      20/  9/ 10   N/A
BURNHAM HARBOR             71     360/  5/  7   N/A
CALUMET HARBOR             72      10/  5/  9   N/A
BURNS HARBOR               73      50/ 12/ 15 1013.5R
MICHIGAN CITY              72      10/ 13/ 14   N/A
MICHIGAN CITY 6N           73 74   50/ 12/ 14   N/A           2/ 3
ST. JOSEPH                 72 73   60/ 12/ 12   N/A           2/ 3
$$

ILZ025>027-034>036-040-047-049-050-058-095>099-040400-
WEST-CENTRAL ILLINOIS

CITY           SKY/WX    TMP DP  RH WIND       PRES   REMARKS
QUINCY         CLEAR     78  68  71 S5        29.94R HX  80
$$

ILZ028>032-037-038-041>044-048-051>054-059>061-040400-
CENTRAL ILLINOIS

CITY           SKY/WX    TMP DP  RH WIND       PRES   REMARKS
DECATUR        CLEAR     78  68  71 SW6       29.96R HX  80
PEORIA         CLOUDY    81  70  69 CALM      29.94R HX  84
SPRINGFIELD    MOCLDY    76  67  73 CALM      29.95R
TAYLORVILLE    NOT AVBL
$$

ILZ033-039-045-046-055>057-062-063-040400-
EAST-CENTRAL ILLINOIS

CITY           SKY/WX    TMP DP  RH WIND       PRES   REMARKS
CHAMPAIGN      CLEAR     74  69  85 SW6       29.96R
MATTOON        CLEAR     79  68  69 SW6       29.96R HX  81
$$

ILZ079-100>102-040400-
SOUTHWEST ILLINOIS

CITY           SKY/WX    TMP DP  RH WIND       PRES   REMARKS
ALTON          CLEAR     73  70  88 CALM      29.96R
BELLEVILLE     CLEAR     76  74  94 CALM      29.95R
CAHOKIA*       CLEAR     78  70  76 S3        29.95R HX  80
$$

ILZ064>066-069>071-074>076-080>082-084>086-088>090-092>094-040400-
SOUTH-CENTRAL ILLINOIS

CITY           SKY/WX    TMP DP  RH WIND       PRES   REMARKS
CARBONDALE     CLEAR     73  70  90 CALM      29.97R
MT. VERNON     CLEAR     72  64  78 CALM      29.98R
$$

ILZ067-068-072-073-078-083-087-091-040400-
SOUTHEAST ILLINOIS

CITY           SKY/WX    TMP DP  RH WIND       PRES   REMARKS
LAWRENCEVILLE  PTCLDY    76  69  79 CALM      29.96R
$$

ABBREVIATIONS USED IN REMARKS
   TC - TEMPERATURE IN CELSIUS
  WCI - WIND CHILL INDEX
   HX - HEAT INDEX
  VSB - VISIBILITY
$$




USA.gov is the U.S. government's official web portal to all federal, state and local government web resources and services.